[[{"header":{"parameterUnit":"m.s-1","parameterCategory":1,"la1":30.2991,"la2":30.254,"lo1":-89.0895,"lo2":-89.0444,"dy":0.0017,"dx":0.0017,"nx":28,"ny":28,"refTime":"2025-09-02T03:00:00:Z","depth":0,"parameterNumber":2,"parameterNumberName":"U-component_of_WINDS"},"data":[0,0,0,0,0,0,0,0,0,0,0,0,0,0,0,0,0,0,0,0,0,0,0,0,0,0,0,0,0,0,0,0,0,0,0,0,0,0,0,0,0,0,0,0,0,0,0,0,0,0,0,0,0,0,0,0,0,0,-4.0114,-4.0114,0,-4.0138,-4.0138,-4.0138,-4.002,-4.0017,-4.0013,-4.001,-4.0033,-4.0036,-4.004,0,0,0,0,0,0,0,0,0,0,0,0,0,-3.9963,-3.9967,-4.0114,-4.0114,-4.0114,-4.0138,-4.0138,-4.0138,-4.0021,-4.0016,-4.0012,-4.0008,-4.0031,-4.0036,-4.004,0,0,0,0,0,0,0,0,0,0,0,0,0,-4.0012,-3.9968,-4.0114,-4.0058,-4.0054,-4.0138,-4.0138,-4.0138,-4.0021,-4.0016,-4.0011,-4.0006,-4.003,-4.0035,-4.0041,-4.0178,0,0,-4.0058,-4.0061,0,0,0,0,0,0,0,0,-4.001,-4.0018,-4.0066,-4.0062,-4.0057,-4.0071,-4.0093,-4.0152,-4.0023,-4.0034,-4.001,-4.0004,-4.0049,-4.0053,-4.0069,-4.0179,-4.018,-4.0059,-4.0062,-4.0065,-4.0066,0,0,0,0,0,0,0,-4.0006,-4.0016,-4.0123,-4.0067,-4.0062,-4.0032,-4.0033,-4.0104,-4.007,-4.0032,-4.0024,-4.0028,-4.0046,-4.0063,-4.0068,-4.0181,-4.0059,-4.0064,-4.0067,-4.0069,-4.0403,-4.0408,0,0,0,0,0,0,-4.0011,-4.0014,-4.0122,-4.0124,-4.002,-4.0038,-4.004,-4.0072,-4.0069,-4.0063,-4.0033,-4.0023,-4.0056,-4.0062,-4.0069,-4.0227,-4.0065,-4.007,-4.0073,-4.0398,-4.0404,-4.041,0,0,0,0,0,0,-4.0008,-4.0021,-4.0121,-4.0067,-4.0077,-4.0047,-4.0083,-4.0075,-4.0092,-4.0069,-4.0062,-4.0057,-4.0052,-4.0061,-4.0151,-4.0226,-4.0072,-4.0078,-4.0391,-4.04,-4.0407,-4.0547,0,0,0,0,0,0,-4.0004,-4.0021,-4.0074,-4.0069,-4.0081,-4.0205,-4.0088,-4.0079,-4.0102,-4.009,-4.009,-4.0085,-4.0049,-4.0144,-4.0157,-4.0231,-4.0082,-4.0384,-4.0395,-4.0405,-4.0535,-4.0559,-4.0579,0,0,0,0,0,-3.9999,-4.0112,-4.0077,-4.0091,-4.0146,-4.021,-4.0216,-4.0173,-4.0109,-4.0161,-4.0146,-4.0085,-4.0217,-4.0154,-4.0168,-4.0245,-4.0379,-4.0392,-4.0404,-4.0526,-4.0554,-4.0578,0,0,0,0,0,0,-4.0126,-4.0111,-4.0071,-4.0186,-4.02,-4.019,-4.0254,-4.0205,-4.0237,-4.0223,-4.0167,-4.0169,-4.0269,-4.0266,-4.0197,-4.0377,-4.0287,-4.0302,-4.0374,-4.0401,-4.0423,-4.042,-4.0087,0,0,0,0,0,-4.0168,-4.0222,-4.0205,-4.0308,-4.0317,-4.0285,-4.0311,-4.0276,-4.0288,-4.0293,-4.0285,-4.0298,-4.0342,-4.0372,-4.0411,-4.0535,-4.0532,-4.0595,-4.0617,-4.0635,-4.0648,-4.0711,-4.0738,-4.045,-4.045,-4.045,0,0,-4.0254,-4.0252,-4.0289,-4.0334,-4.034,-4.0396,-4.029,-4.0354,-4.0395,-4.0303,-4.0387,-4.0382,-4.0393,-4.0501,-4.0548,-4.0502,-4.0728,-4.0651,-4.0665,-4.0669,-4.0727,-4.0754,-4.0778,-4.0459,-4.0457,-4.0456,0,0,-4.0438,-4.0444,-4.0529,-4.0538,-4.0549,-4.0527,-4.0548,-4.0545,-4.0537,-4.0622,-4.0553,-4.0601,-4.0678,-4.0688,-4.0703,-4.0892,-4.0836,-4.0907,-4.1019,-4.1081,-4.1104,-4.1124,-4.1188,-4.1213,-4.0921,-4.0921,-4.0921,0,-4.0543,-4.0625,-4.0579,-4.0647,-4.0667,-4.0588,-4.0673,-4.0684,-4.0708,-4.0723,-4.0672,-4.0766,-4.0768,-4.0876,-4.0922,-4.0938,-4.0958,-4.0905,-4.1105,-4.1124,-4.1142,-4.1203,-4.1228,-4.0929,-4.0928,-4.0927,-4.0927,0,-4.0753,-4.0811,-4.0878,-4.0903,-4.0932,-4.1008,-4.0972,-4.1006,-4.097,-4.0953,-4.1039,-4.1039,-4.1075,-4.1099,-4.1064,-4.1202,-4.1172,-4.1115,-4.1022,-4.1178,-4.1234,-4.1258,-4.0941,-4.0938,-4.0936,-4.0934,0,0,-4.1016,-4.1015,-4.104,-4.1049,-4.1057,-4.11,-4.1173,-4.1209,-4.1238,-4.1258,-4.1316,-4.1383,-4.1329,-4.1347,-4.1312,-4.1367,-4.1514,-4.1302,-4.1301,-4.1339,-4.1662,-4.1704,-4.1732,-4.1478,-4.1482,-4.1486,-4.1661,0,-4.1195,-4.1318,-4.1278,-4.1403,-4.1455,-4.138,-4.1443,-4.1453,-4.144,-4.1481,-4.1465,-4.1513,-4.1439,-4.1449,-4.15,-4.1485,-4.1577,-4.1472,-4.1529,-4.1532,-4.1526,-4.1762,-4.1807,-4.1971,-4.1683,-4.1686,-4.1689,0,-4.1419,-4.1447,-4.1577,-4.1574,-4.1594,-4.1652,-4.1681,-4.1722,-4.1732,-4.1718,-4.1738,-4.1692,-4.1761,-4.1671,-4.1765,-4.1694,-4.1716,-4.1712,-4.1717,-4.1719,-4.1618,-4.1767,-4.2023,-4.2047,-4.1724,-4.1721,-4.1718,0,-4.1595,-4.1666,-4.1752,-4.1763,-4.1762,-4.1804,-4.1805,-4.181,-4.1835,-4.1861,-4.1875,-4.1909,-4.1927,-4.1954,-4.1918,-4.1856,-4.2017,-4.1924,-4.2005,-4.2006,-4.204,-4.2038,-4.23,-4.2059,-4.2058,-4.2058,-4.2057,0,-4.1796,-4.1878,-4.183,-4.1883,-4.1972,-4.1925,-4.2015,-4.2008,-4.2013,-4.2062,-4.2001,-4.2048,-4.1998,-4.2041,-4.2013,-4.2094,-4.2103,-4.2092,-4.2083,-4.2096,-4.2098,-4.2107,-4.2094,-4.2064,-4.2063,-4.2062,-4.2061,0,-4.2006,-4.1978,-4.2067,-4.2059,-4.2059,-4.2125,-4.2117,-4.2165,-4.2148,-4.2211,-4.2223,-4.2195,-4.2241,-4.2208,-4.2256,-4.2237,-4.2342,-4.2318,-4.2338,-4.2331,-4.2413,-4.2405,-4.2689,-4.2723,-4.2462,-4.2465,-4.2467,0,-4.2136,-4.2197,-4.2196,-4.2224,-4.223,-4.2277,-4.2301,-4.2258,-4.2286,-4.2302,-4.2347,-4.2389,-4.242,-4.2498,-4.2481,-4.2516,-4.2491,-4.2589,-4.2496,-4.2507,-4.249,-4.2485,-4.249,-4.2607,-4.261,-4.2612,-4.2614,0,-4.2367,-4.235,-4.2387,-4.2421,-4.2451,-4.2475,-4.2494,-4.2521,-4.2476,-4.2511,-4.2558,-4.2582,-4.263,-4.2671,-4.27,-4.27,-4.265,-4.2644,-4.2664,-4.2676,-4.2684,-4.2678,-4.2386,-4.2637,-4.2635,-4.2633,-4.2632,-4.2631,-4.2538,-4.2588,-4.2595,-4.2639,-4.2648,-4.2667,-4.2711,-4.2699,-4.2738,-4.2773,-4.2746,-4.2802,-4.2809,-4.2843,-4.2849,-4.2892,-4.2852,-4.2882,-4.2889,-4.2896,-4.2906,-4.268,-4.2897,-4.2897,-4.2896,-4.2895,-4.2895,0,-4.2764,-4.2765,-4.2806,-4.2834,-4.2868,-4.2819,-4.2836,-4.2868,-4.2918,-4.293,-4.2961,-4.3015,-4.3055,-4.3042,-4.3077,-4.3113,-4.3091,-4.3124,-4.3119,-4.3119,-4.2941,-4.2919,-4.3141,-4.3141,-4.3141,-4.3141,-4.3141,-4.3141,-4.2885,-4.2967,-4.2951,-4.3036,-4.3035,-4.309,-4.3104,-4.312,-4.3129,-4.3192,-4.3225,-4.3216,-4.3218,-4.3252,-4.3286,-4.3281,-4.3296,-4.3337,-4.3323,-4.3157,-4.3132,-4.3109,-4.3088,-4.3341,-4.3342,-4.3497,-4.3499,-4.35]},{"header":{"parameterUnit":"m.s-1","parameterCategory":1,"la1":30.2991,"la2":30.254,"lo1":-89.0895,"lo2":-89.0444,"dy":0.0017,"dx":0.0017,"nx":28,"ny":28,"refTime":"2025-09-02T03:00:00:Z","depth":0,"parameterNumber":3,"parameterNumberName":"V-component_of_WINDS"},"data":[0,0,0,0,0,0,0,0,0,0,0,0,0,0,0,0,0,0,0,0,0,0,0,0,0,0,0,0,0,0,0,0,0,0,0,0,0,0,0,0,0,0,0,0,0,0,0,0,0,0,0,0,0,0,0,0,0,0,0.3286,0.3285,0,0.3241,0.324,0.324,0.322,0.3221,0.3221,0.3221,0.3172,0.317,0.3169,0,0,0,0,0,0,0,0,0,0,0,0,0,0.3354,0.3352,0.3286,0.3285,0.3285,0.3241,0.324,0.3239,0.322,0.3221,0.3221,0.3221,0.3172,0.3171,0.3169,0,0,0,0,0,0,0,0,0,0,0,0,0,0.3318,0.3352,0.3286,0.327,0.3268,0.3241,0.324,0.3239,0.322,0.3221,0.3221,0.3221,0.3173,0.3171,0.3169,0.3153,0,0,0.3162,0.3161,0,0,0,0,0,0,0,0,0.332,0.3315,0.3273,0.3271,0.3269,0.3236,0.3246,0.321,0.322,0.3238,0.3221,0.3221,0.3193,0.3189,0.318,0.3151,0.3149,0.3162,0.3161,0.316,0.3159,0,0,0,0,0,0,0,0.3322,0.3317,0.3268,0.3272,0.327,0.3264,0.3259,0.3239,0.3215,0.3237,0.3235,0.323,0.3192,0.3182,0.3179,0.3148,0.3162,0.316,0.3159,0.3158,0.3105,0.3104,0,0,0,0,0,0,0.3328,0.3319,0.3269,0.3266,0.3295,0.3263,0.3258,0.3247,0.3216,0.3211,0.323,0.323,0.3186,0.3181,0.3177,0.3158,0.316,0.3158,0.3157,0.3105,0.3105,0.3104,0,0,0,0,0,0,0.3329,0.3323,0.3271,0.3292,0.3285,0.3262,0.325,0.3246,0.3236,0.3211,0.3206,0.3225,0.3186,0.318,0.316,0.3156,0.3157,0.3155,0.3105,0.3105,0.3104,0.3118,0,0,0,0,0,0,0.3331,0.3324,0.3318,0.3293,0.3284,0.3255,0.3249,0.3245,0.3233,0.3232,0.3205,0.32,0.3185,0.3163,0.3158,0.3153,0.3154,0.3105,0.3105,0.3105,0.3118,0.3118,0.3119,0,0,0,0,0,0.3334,0.3323,0.3318,0.3312,0.3277,0.3254,0.325,0.3234,0.3233,0.3226,0.321,0.3201,0.3157,0.3161,0.3155,0.3149,0.3105,0.3105,0.3105,0.3118,0.3118,0.3119,0,0,0,0,0,0,0.3347,0.3319,0.3313,0.3294,0.3277,0.3251,0.3243,0.3235,0.3217,0.3216,0.3196,0.319,0.3172,0.3158,0.3163,0.3133,0.3131,0.3129,0.3143,0.3143,0.3143,0.3147,0.3152,0,0,0,0,0,0.3348,0.3333,0.3309,0.3295,0.3286,0.3266,0.3256,0.3245,0.3226,0.3219,0.3201,0.3182,0.3165,0.3153,0.3135,0.3116,0.311,0.3109,0.311,0.311,0.3109,0.3099,0.3098,0.3103,0.3103,0.3103,0,0,0.335,0.3332,0.3324,0.3297,0.3282,0.3267,0.326,0.3244,0.3232,0.3216,0.3196,0.3183,0.316,0.3141,0.3132,0.3129,0.3107,0.311,0.311,0.3109,0.3098,0.3098,0.3098,0.3103,0.3103,0.3103,0,0,0.3344,0.333,0.3316,0.3303,0.3281,0.3268,0.3265,0.3241,0.3232,0.3212,0.32,0.3185,0.3155,0.314,0.3128,0.312,0.311,0.3114,0.3116,0.3106,0.3106,0.3106,0.3103,0.3102,0.3113,0.3113,0.3113,0,0.3348,0.3325,0.331,0.3295,0.3284,0.327,0.3256,0.3243,0.3217,0.3209,0.3207,0.317,0.3154,0.3131,0.3129,0.312,0.3116,0.3117,0.3107,0.3107,0.3106,0.3103,0.3102,0.3114,0.3114,0.3113,0.3113,0,0.3332,0.3316,0.3308,0.3284,0.3272,0.3257,0.324,0.3229,0.322,0.3207,0.3187,0.3168,0.3147,0.3141,0.3131,0.3117,0.3116,0.3111,0.3108,0.3107,0.3104,0.3102,0.3114,0.3114,0.3114,0.3114,0,0,0.3332,0.3302,0.3299,0.3289,0.3265,0.3252,0.3238,0.3218,0.3209,0.3192,0.3179,0.3154,0.315,0.3137,0.3126,0.3118,0.3112,0.3113,0.3113,0.3114,0.3096,0.31,0.3099,0.3107,0.3107,0.3106,0.3098,0,0.3323,0.3297,0.3284,0.3263,0.3249,0.3237,0.3224,0.3208,0.3196,0.3182,0.3168,0.3151,0.3147,0.3139,0.313,0.3115,0.3109,0.3115,0.3094,0.3094,0.31,0.3097,0.3101,0.3094,0.3097,0.3097,0.3097,0,0.331,0.3294,0.3273,0.3252,0.3245,0.3234,0.3216,0.3202,0.3184,0.3176,0.3163,0.3152,0.3136,0.3135,0.3112,0.3117,0.3108,0.31,0.3099,0.3096,0.3095,0.3094,0.3092,0.3091,0.3094,0.3095,0.3095,0,0.3313,0.3286,0.327,0.3262,0.3237,0.323,0.3219,0.3201,0.3191,0.3174,0.3167,0.3149,0.3139,0.3124,0.3109,0.311,0.3089,0.3086,0.3081,0.3082,0.3077,0.3077,0.3073,0.3071,0.3071,0.3071,0.3071,0,0.3304,0.3292,0.3271,0.3261,0.3247,0.3232,0.3218,0.3206,0.3191,0.3178,0.3166,0.3155,0.3135,0.3121,0.3109,0.3093,0.3088,0.3081,0.3078,0.3082,0.3083,0.3075,0.3075,0.3071,0.3071,0.3071,0.3071,0,0.3305,0.3291,0.3272,0.3251,0.3246,0.3236,0.3218,0.3208,0.3196,0.318,0.3176,0.3157,0.314,0.3124,0.31,0.3092,0.3076,0.3072,0.3082,0.3081,0.3077,0.3078,0.3067,0.3065,0.3065,0.3065,0.3065,0,0.33,0.329,0.3269,0.326,0.325,0.3236,0.3226,0.3211,0.3201,0.3181,0.3173,0.3155,0.314,0.3114,0.3097,0.308,0.3075,0.3073,0.3072,0.3077,0.3075,0.3076,0.3075,0.3073,0.3073,0.3073,0.3073,0,0.3294,0.3288,0.3274,0.3258,0.3246,0.3233,0.3218,0.3212,0.3194,0.3183,0.3167,0.3155,0.3133,0.3115,0.3096,0.3085,0.3076,0.3074,0.3072,0.3076,0.3082,0.3079,0.3083,0.3074,0.3074,0.3074,0.3074,0.3074,0.3292,0.3283,0.3267,0.3252,0.324,0.3228,0.3218,0.3205,0.3191,0.3173,0.3165,0.3148,0.3131,0.3105,0.3093,0.308,0.3078,0.3075,0.3074,0.3073,0.3074,0.3085,0.3076,0.3076,0.3076,0.3076,0.3076,0,0.3285,0.3274,0.3261,0.3243,0.3231,0.3226,0.321,0.32,0.3186,0.3172,0.3158,0.3139,0.3123,0.3106,0.3089,0.3081,0.3077,0.3077,0.3077,0.3075,0.3077,0.3081,0.3081,0.3081,0.3081,0.3081,0.3081,0.3081,0.328,0.3265,0.3257,0.3237,0.3226,0.3211,0.3202,0.3191,0.3179,0.3159,0.3146,0.3136,0.312,0.3102,0.3087,0.3082,0.3076,0.3078,0.3072,0.3075,0.3074,0.3074,0.3077,0.3077,0.3077,0.3071,0.3071,0.3071]}]]